Location: Hemaruka
(51.7801°N, 111.0917°W)
Time: 14:36:30
(UTC+00:00)

Envisat - Pass Details

Date: 01 June 2023
Orbit: 763 x 764 km, 98.2° (Epoch: 26 September)

Event Time Altitude Azimuth Distance (km) Brightness Sun altitude
Rises 10:20:31 0° 23° (NNE) 3,241 7.9 -6.5°
Reaches altitude 10° 10:23:14 10° 37° (NE) 2,310 7.3 -6.2°
Maximum altitude 10:27:23 25° 92° (E) 1,523 5.1 -5.8°
Drops below altitude 10° 10:31:30 10° 146° (SE) 2,297 5.4 -5.4°
Sets 10:34:11 0° 160° (SSE) 3,218 6.0 -5.1°
